Location: Newark
(25.6108°S, 54.5803°W)
Time: 05:20:04
(UTC+00:00)

deb Explorer IX - Pass Details

Date: 28 October 2020
Orbit: 538 x 1104 km, 38.8° (Epoch: 29 November)

Event Time Altitude Azimuth Distance (km) Brightness Sun altitude
Rises 23:04:01 0° 241° (WSW) 3,055 ? -16.0°
Reaches altitude 10° 23:07:31 10° 217° (SW) 2,026 ? -16.8°
Maximum altitude 23:10:09 15° 182° (S) 1,660 ? -17.3°
Drops below altitude 10° 23:12:38 10° 147° (SSE) 1,894 ? -17.8°
Enters shadow 23:13:50 - 135° (SE) 2,174 ? -18.0°
Sets 23:15:43 0° 122° (ESE) 2,735 - -18.4°
